This demonstration page uses our WeatherBlox Daily Observations layout. Learn more.

Left ArrowRight Arrow

Hourly Observations for September 6, 2021

Temp ( °F °C ) Dew Point ( °F °C ) Humidity (%) Winds ( mph kmh ) Pressure ( in mb ) Visibility ( mi km ) Precip ( " mm )
12:15 am 00:15 Clear 66 18.7 62 16.5 87 87 SE 6 9 29.97 1015 10 16 N/A
12:35 am 00:35 Clear 65 18.5 61 16.3 87 87 SSE 5 7 29.97 1015 10 16 N/A
12:55 am 00:55 Clear 66 18.7 61 16 84 84 S 5 7 29.95 1014 10 16 N/A
1:15 am 01:15 Clear 65 18.5 61 16 85 85 S 6 9 29.95 1014 10 16 N/A
1:35 am 01:35 Clear 66 18.7 60 15.7 83 83 S 6 9 29.95 1014 10 16 N/A
1:55 am 01:55 Clear 65 18.2 60 15.8 86 86 S 6 9 29.95 1014 10 16 N/A
2:15 am 02:15 Clear 65 18.2 61 15.9 87 87 S 6 9 29.95 1014 10 16 N/A
2:35 am 02:35 Clear 65 18.5 60 15.7 84 84 S 7 11 29.94 1014 10 16 N/A
2:55 am 02:55 Clear 64 17.6 60 15.5 88 88 S 7 11 29.95 1014 10 16 N/A
3:15 am 03:15 Clear 63 17.2 60 15.5 90 90 S 5 7 29.94 1014 10 16 N/A
3:35 am 03:35 Clear 63 17.1 60 15.5 90 90 S 5 7 29.94 1014 10 16 N/A
3:55 am 03:55 Clear 64 17.5 60 15.5 88 88 N N/A 29.94 1014 10 16 N/A
4:15 am 04:15 Clear 63 17 60 15.3 90 90 N N/A 29.94 1014 10 16 N/A
4:35 am 04:35 Clear 62 16.9 60 15.4 91 91 S 3 6 29.94 1014 10 16 N/A
4:55 am 04:55 Clear 63 17.1 60 15.3 89 89 SSW 5 7 29.94 1014 10 16 N/A
5:15 am 05:15 Clear 62 16.9 59 15 89 89 S 3 6 29.93 1014 10 16 N/A
5:35 am 05:35 Clear 62 16.4 58 14.6 89 89 N N/A 29.94 1014 10 16 N/A
5:55 am 05:55 Clear 61 16 58 14.4 90 90 S 3 6 29.94 1014 10 16 N/A
6:10 am 06:10 Clear 61 16.1 58 14.7 91 91 SSW 5 7 29.94 1014 10 16 N/A
6:35 am 06:35 Clear 61 16.2 58 14.5 90 90 SSW 5 7 29.94 1014 10 16 N/A
6:55 am 06:55 Clear 60 15.8 58 14.3 91 91 S 7 11 29.95 1014 10 16 N/A
7:15 am 07:15 Sunny 60 15.5 58 14.2 92 92 SSW 3 6 29.95 1014 10 16 N/A
7:35 am 07:35 Sunny 60 15.6 58 14.2 91 91 S 3 6 29.95 1014 10 16 N/A
7:55 am 07:55 Sunny 61 16 58 14.4 90 90 S 3 6 29.95 1014 10 16 N/A
8:15 am 08:15 Sunny 62 16.5 58 14.6 89 89 S 3 6 29.95 1014 10 16 N/A
8:35 am 08:35 Sunny 63 17.2 59 15.2 88 88 N N/A 29.95 1014 10 16 N/A
8:55 am 08:55 Sunny 65 18.1 60 15.7 86 86 S 6 9 29.93 1014 10 16 N/A
9:15 am 09:15 Sunny 66 19 61 16 83 83 S 6 9 29.93 1013 10 16 N/A
9:35 am 09:35 Sunny 67 19.7 62 16.4 81 81 S 5 7 29.92 1013 10 16 N/A
9:55 am 09:55 Sunny 70 21 63 17.2 79 79 SSW 6 9 29.91 1013 10 16 N/A
10:15 am 10:15 Sunny 71 21.5 63 17.2 77 77 SSW 3 6 29.90 1013 10 16 N/A
10:35 am 10:35 Sunny 73 22.5 64 17.5 73 73 S 5 7 29.90 1012 10 16 N/A
10:55 am 10:55 Sunny 74 23.3 65 18.1 73 73 SSW 5 7 29.89 1012 10 16 N/A
11:15 am 11:15 Sunny 76 24.2 65 18.2 69 69 SSW 5 7 29.88 1012 10 16 N/A
11:35 am 11:35 Sunny 77 25 64 17.6 64 64 S 5 7 29.87 1011 10 16 N/A
11:55 am 11:55 Sunny 78 25.6 65 18.5 65 65 S 3 6 29.85 1011 10 16 N/A
12:15 pm 12:15 Sunny 79 26.3 65 18.2 61 61 SSE 5 7 29.85 1011 10 16 N/A
12:35 pm 12:35 Sunny 81 27 64 18 58 58 SSW 6 9 29.83 1010 10 16 N/A
12:55 pm 12:55 Sunny 82 27.9 65 18.5 57 57 S 6 9 29.82 1010 10 16 N/A
1:15 pm 13:15 Sunny 83 28.1 64 17.8 54 54 SSE 7 11 29.81 1010 10 16 N/A
1:35 pm 13:35 Sunny 83 28.6 66 19 56 56 S 9 15 29.80 1009 10 16 N/A
1:55 pm 13:55 Sunny 84 28.8 65 18.5 54 54 S 9 15 29.79 1009 10 16 N/A
2:15 pm 14:15 Sunny 85 29.4 64 17.7 49 49 S 9 15 29.78 1009 10 16 N/A
2:35 pm 14:35 Sunny 85 29.6 65 18.2 50 50 S 10 17 29.78 1008 10 16 N/A
2:55 pm 14:55 Sunny 86 30.1 63 17.1 46 46 S 9 15 29.77 1008 10 16 N/A
3:15 pm 15:15 Sunny 87 30.5 65 18.1 47 47 S 9 15 29.75 1008 10 16 N/A
3:35 pm 15:35 Sunny 88 31 64 17.5 44 44 S 9 15 29.74 1007 10 16 N/A
3:55 pm 15:55 Sunny 88 31.2 64 17.9 45 45 S 9 15 29.73 1007 10 16 N/A
4:15 pm 16:15 Sunny 89 31.5 64 17.6 43 43 S 7 11 29.72 1006 10 16 N/A
4:35 pm 16:35 Sunny 89 31.6 64 17.9 44 44 S 8 13 29.71 1006 10 16 N/A
4:55 pm 16:55 Sunny 89 31.6 64 18 44 44 S 6 9 29.71 1006 10 16 N/A
5:15 pm 17:15 Sunny 89 31.6 64 17.7 43 43 S 6 9 29.70 1006 10 16 N/A
5:35 pm 17:35 Sunny 89 31.6 65 18.4 45 45 S 6 9 29.70 1006 10 16 N/A
5:55 pm 17:55 Sunny 88 31.2 65 18.5 47 47 S 6 9 29.69 1005 10 16 N/A
6:15 pm 18:15 Sunny 87 30.6 67 19.4 51 51 SSE 5 7 29.69 1006 10 16 N/A
6:35 pm 18:35 Sunny 86 30 68 20.2 56 56 SSE 5 7 29.69 1005 10 16 N/A
6:55 pm 18:55 Sunny 84 29.1 69 20.5 60 60 SSE 5 7 29.70 1006 10 16 N/A
7:15 pm 19:15 Sunny 82 27.7 69 20.3 64 64 SSE 6 9 29.70 1006 10 16 N/A
7:35 pm 19:35 Sunny 80 26.6 68 19.8 66 66 SSE 6 9 29.69 1006 10 16 N/A
7:55 pm 19:55 Sunny 77 25 66 19.1 70 70 SSE 6 9 29.71 1006 10 16 N/A
8:15 pm 20:15 Clear 76 24.3 66 18.7 71 71 SSE 6 9 29.71 1006 10 16 N/A
8:35 pm 20:35 Clear 76 24.5 65 18.2 68 68 S 7 11 29.72 1006 10 16 N/A
8:55 pm 20:55 Clear 74 23.6 65 18.2 72 72 S 6 9 29.74 1007 10 16 N/A
9:15 pm 21:15 Clear 73 23 64 18 74 74 S 5 7 29.74 1007 10 16 N/A
9:35 pm 21:35 Clear 73 22.6 64 17.8 74 74 S 6 9 29.76 1008 10 16 N/A
9:55 pm 21:55 Clear 73 22.5 64 17.5 73 73 S 6 9 29.76 1008 10 16 N/A
10:15 pm 22:15 Clear 72 22.1 64 17.5 75 75 S 7 11 29.76 1008 10 16 N/A
10:35 pm 22:35 Clear 72 22.3 64 17.5 74 74 S 7 11 29.76 1008 10 16 N/A
10:55 pm 22:55 Clear 73 22.6 64 17.8 74 74 S 8 13 29.76 1008 10 16 N/A
11:15 pm 23:15 Clear 73 22.8 64 18 74 74 S 8 13 29.75 1008 10 16 N/A
11:35 pm 23:35 Clear 73 22.8 65 18.1 75 75 S 8 13 29.75 1008 10 16 N/A
11:55 pm 23:55 Clear 73 22.5 65 18.1 76 76 S 8 13 29.76 1008 10 16 N/A

Powered by AerisWeather